TimeEDT,TemperatureF,Dew PointF,Humidity,Sea Level PressureIn,VisibilityMPH,Wind Direction,Wind SpeedMPH,Gust SpeedMPH,PrecipitationIn,Events,Conditions,WindDirDegrees,DateUTC
12:01 AM,33.8,32.0,93,29.96,3.0,West,4.6,-,0.00,Snow,Light Snow,280,2012-11-03 04:01:00
12:53 AM,33.1,32.0,96,30.00,4.0,West,3.5,-,0.00,Snow,Light Snow,280,2012-11-03 04:53:00
12:55 AM,33.8,32.0,93,29.96,5.0,West,3.5,-,0.00,Snow,Light Snow,270,2012-11-03 04:55:00
1:53 AM,34.0,32.0,92,30.00,9.0,West,5.8,-,0.00,,Overcast,280,2012-11-03 05:53:00
2:15 AM,33.8,32.0,93,29.97,5.0,West,4.6,-,0.00,Snow,Light Snow,280,2012-11-03 06:15:00
2:31 AM,33.8,32.0,93,29.97,3.0,West,5.8,-,0.00,Snow,Light Snow,280,2012-11-03 06:31:00
2:53 AM,33.1,32.0,96,30.01,9.0,West,6.9,-,0.01,,Overcast,270,2012-11-03 06:53:00
3:53 AM,34.0,32.0,92,30.01,10.0,West,5.8,-,N/A,,Overcast,280,2012-11-03 07:53:00
4:01 AM,33.8,32.0,93,29.98,10.0,West,4.6,-,N/A,,Overcast,280,2012-11-03 08:01:00
4:08 AM,33.8,32.0,93,29.98,10.0,West,5.8,-,N/A,,Overcast,280,2012-11-03 08:08:00
4:27 AM,33.8,32.0,93,29.98,8.0,NW,6.9,-,0.00,Snow,Light Snow,310,2012-11-03 08:27:00
4:53 AM,34.0,32.0,92,30.02,3.0,NW,4.6,-,0.00,Snow,Light Snow,310,2012-11-03 08:53:00
5:22 AM,33.8,32.0,93,29.99,10.0,West,6.9,-,0.00,,Overcast,280,2012-11-03 09:22:00
5:53 AM,34.0,32.0,92,30.03,8.0,WNW,8.1,-,0.00,Snow,Light Snow,300,2012-11-03 09:53:00
6:01 AM,33.8,32.0,93,30.00,9.0,WNW,9.2,-,0.00,,Overcast,290,2012-11-03 10:01:00
6:05 AM,33.8,32.0,93,30.00,9.0,West,8.1,-,0.00,Snow,Light Snow,280,2012-11-03 10:05:00
6:53 AM,34.0,32.0,92,30.05,10.0,WNW,6.9,-,0.01,,Overcast,300,2012-11-03 10:53:00
7:11 AM,33.8,32.0,93,30.02,10.0,WNW,6.9,-,N/A,,Overcast,290,2012-11-03 11:11:00
7:26 AM,33.8,32.0,93,30.02,10.0,West,8.1,-,N/A,,Mostly Cloudy,280,2012-11-03 11:26:00
7:53 AM,35.1,32.0,89,30.06,10.0,West,8.1,-,N/A,,Overcast,280,2012-11-03 11:53:00
8:53 AM,35.1,33.1,92,30.09,10.0,West,5.8,-,N/A,,Overcast,280,2012-11-03 12:53:00
9:53 AM,37.9,34.0,86,30.09,10.0,WNW,5.8,-,0.01,,Overcast,290,2012-11-03 13:53:00
10:53 AM,37.9,32.0,79,30.10,10.0,WNW,9.2,-,N/A,,Overcast,290,2012-11-03 14:53:00
11:53 AM,39.0,30.0,70,30.11,10.0,NW,10.4,-,0.00,,Overcast,310,2012-11-03 15:53:00
12:53 PM,39.9,28.9,65,30.11,10.0,WNW,11.5,-,N/A,,Overcast,300,2012-11-03 16:53:00
1:53 PM,39.9,30.0,68,30.10,10.0,WNW,10.4,-,0.01,,Overcast,300,2012-11-03 17:53:00
2:53 PM,39.0,30.0,70,30.11,10.0,NW,8.1,-,N/A,,Overcast,320,2012-11-03 18:53:00
3:42 PM,39.2,30.2,70,30.07,10.0,WNW,9.2,-,N/A,,Overcast,300,2012-11-03 19:42:00
3:53 PM,39.0,32.0,76,30.11,10.0,WNW,8.1,-,N/A,,Overcast,300,2012-11-03 19:53:00
4:24 PM,39.2,32.0,75,30.08,10.0,Variable,6.9,-,N/A,,Overcast,0,2012-11-03 20:24:00
4:53 PM,37.9,33.1,83,30.12,10.0,NW,4.6,-,0.01,,Overcast,310,2012-11-03 20:53:00
5:15 PM,37.4,33.8,87,30.08,10.0,WNW,4.6,-,N/A,,Overcast,300,2012-11-03 21:15:00
5:53 PM,37.9,33.1,83,30.12,10.0,WNW,4.6,-,N/A,,Overcast,290,2012-11-03 21:53:00
6:18 PM,37.4,33.8,87,30.08,10.0,WNW,4.6,-,N/A,,Overcast,300,2012-11-03 22:18:00
6:33 PM,37.4,33.8,87,30.08,10.0,WNW,4.6,-,N/A,,Overcast,290,2012-11-03 22:33:00
6:53 PM,37.0,34.0,89,30.11,10.0,West,4.6,-,N/A,,Overcast,280,2012-11-03 22:53:00
7:39 PM,35.6,33.8,93,30.08,10.0,West,4.6,-,0.00,,Overcast,270,2012-11-03 23:39:00
7:53 PM,36.0,34.0,93,30.12,10.0,West,4.6,-,0.00,,Overcast,270,2012-11-03 23:53:00
8:01 PM,35.6,33.8,93,30.08,9.0,WNW,4.6,-,0.01,Rain,Light Rain,290,2012-11-04 00:01:00
8:53 PM,36.0,34.0,93,30.12,10.0,NW,5.8,-,0.01,,Overcast,310,2012-11-04 00:53:00
9:16 PM,35.6,33.8,93,30.09,10.0,WNW,3.5,-,0.00,,Overcast,290,2012-11-04 01:16:00
9:42 PM,35.6,33.8,93,30.08,10.0,WNW,3.5,-,0.00,,Overcast,290,2012-11-04 01:42:00
9:49 PM,35.6,33.8,93,30.08,10.0,NW,4.6,-,0.00,,Overcast,310,2012-11-04 01:49:00
9:53 PM,36.0,34.0,93,30.12,10.0,Calm,Calm,-,0.00,,Overcast,0,2012-11-04 01:53:00
10:53 PM,36.0,33.1,89,30.12,10.0,WNW,3.5,-,N/A,,Overcast,290,2012-11-04 02:53:00
11:53 PM,36.0,30.9,82,30.12,10.0,NW,4.6,-,0.01,,Overcast,310,2012-11-04 03:53:00